OBJECT B, 67364

Orbit data source: Space-Track

You're viewing an Uncataloged Satellite

Recently launched and/or uncataloged satellites may have evolving metadata. Metadata may include but not limited to: Owner, Maufacturer, Bus, Motor, and Mission.

OBJECT B, 67364 is a satellite in SSO that was launched on Sun, 11 Jan 2026 UTC via an FALCON 9 launch vehicle from the Air Force Western Test Range (AFWTR). Unknown objects in Earth's orbit typically refer to objects detected orbiting the Earth but have not yet been identified or cataloged. These objects could be anything from previously untracked satellites, spent rocket stages, debris from satellite collisions, or even natural meteoroids temporarily captured by Earth's gravity.

Loading next visibility...
Identifier
67364, 2026-004B
Orbit
SSO
Country
Flag of TBDTBD
Related business
Manufacturer
DCUBED
Mission
Operational Commercial Com/MetRO
Bus & Motor
CUBESAT 3U, Unknown motor
Mass
5 kg wet, 5 kg dry
Launch date (UTC)
2026-01-11 (4 months ago)
Launch vehicle
FALCON 9
Launch site
Air Force Western Test Range (AFWTR)
Object type
Unknown
Shape & HBR
Box + 2 Pan, 14.5 m
Radar Cross Section
0.054 m²

Expand to show TLE details & history
Last TLE update: 8 hours ago

TLE from 8 hours ago
0 OBJECT B
1 67364U 26004B   26146.50072102  .00001721  00000-0  19522-3 0  9997
2 67364  97.8060 145.4191 0008171 191.0444 169.0595 14.87614100 20068
Epoch: 2026-05-26T12:01Z
TLE epoch observation values (Epoch: 2026-05-26T12:01:02.296Z)
Latitude
0.00007°
Longitude
81.08626°
Altitude
614.031 km
Speed
7.549 km/s
True Right ascension
09h 41m 40s
True Declination
0° 00' 00"
Sunlit
Object was in daylight at epoch
Visualization orbit readout
Latitude
Unknown
Longitude
Unknown
Altitude
Unknown
Speed
Unknown
Apparent Right ascension
Unknown
Apparent Declination
Unknown
Sunlit
N/A
Visualization observer readout
Local Sidereal Time
05:28:48
Azimuth
Unknown
Elevation
Unknown
Doppler factor
Unknown
Orbital elements
Apogee altitude
608.123 km
Perigee altitude
596.715 km
Semi-major axis
6,980.556 km
Eccentricity
0.00082
Inclination
97.806°
RAAN
145.4191°
Arg. of periapsis
191.0444°
True anomaly
169.07725°
Mean anomaly
169.0595°
Eccentric anomaly
169.06838°
Mean motion
3.72142 °/min
Orbital period
96.74 mins
BSTAR
0.00019522
Loading maneuver chart data...
Computing Atmospheric mass density...
Loading historical data...
Loading historical data...
Loading historical data...
Loading historical data...
Loading historical data...
Loading historical data...
Loading historical data...

Documentation

Showing up to 5 results
|